DLH4MK EDDL-EDDF

Flight info

Callsign DLH4MK
Flight time 0h 28m
Altitude 23000
Route COL5Z COL T911 ROLIS ROLIS5D
Aircraft A319/M-SDE2E3FGIJ1LORWXYZ/HB1

Departure

Time 2026-04-17 06:17
Airport Düsseldorf Airport (EDDL)

Arrival

Time 2026-04-17 06:45
Airport Frankfurt Main Airport (EDDF)
Time Latitude Longitude Altitude Speed Heading
2026-04-17 05:48 51.28108 6.76548 125 ft 0 kts 96°
2026-04-17 06:10 51.28108 6.76545 128 ft 2 kts 96°
2026-04-17 06:10 51.28111 6.76503 126 ft 4 kts 98°
2026-04-17 06:10 51.28115 6.76460 124 ft 4 kts 96°
2026-04-17 06:11 51.28118 6.76422 124 ft 4 kts 126°
2026-04-17 06:11 51.28138 6.76405 123 ft 4 kts 174°
2026-04-17 06:11 51.28164 6.76399 125 ft 4 kts 165°
2026-04-17 06:11 51.28189 6.76386 123 ft 4 kts 148°
2026-04-17 06:12 51.28202 6.76367 122 ft 4 kts 66°
2026-04-17 06:12 51.28201 6.76360 122 ft 0 kts 52°
2026-04-17 06:13 51.28201 6.76361 122 ft 0 kts 52°
2026-04-17 06:13 51.28214 6.76387 124 ft 7 kts 52°
2026-04-17 06:13 51.28256 6.76473 125 ft 13 kts 49°
2026-04-17 06:14 51.28357 6.76509 126 ft 18 kts 37°
2026-04-17 06:14 51.28449 6.76693 126 ft 24 kts 52°
2026-04-17 06:14 51.28559 6.76922 129 ft 26 kts 53°
2026-04-17 06:14 51.28670 6.77154 129 ft 26 kts 52°
2026-04-17 06:15 51.28782 6.77390 128 ft 27 kts 53°
2026-04-17 06:15 51.28897 6.77631 127 ft 27 kts 53°
2026-04-17 06:15 51.29012 6.77874 130 ft 28 kts 53°
2026-04-17 06:15 51.29128 6.78117 133 ft 26 kts 52°
2026-04-17 06:16 51.29258 6.78193 137 ft 21 kts 329°
2026-04-17 06:16 51.29323 6.78056 139 ft 15 kts 240°
2026-04-17 06:16 51.29216 6.77832 134 ft 55 kts 233°
2026-04-17 06:16 51.28811 6.76986 128 ft 133 kts 233°
2026-04-17 06:17 51.28198 6.75686 609 ft 148 kts 232°
2026-04-17 06:17 51.27584 6.74372 1383 ft 148 kts 233°
2026-04-17 06:17 51.26937 6.72979 1895 ft 166 kts 233°
2026-04-17 06:17 51.26202 6.71398 2341 ft 189 kts 233°
2026-04-17 06:18 51.25366 6.69599 2792 ft 214 kts 233°
2026-04-17 06:18 51.24430 6.67587 3354 ft 238 kts 233°
2026-04-17 06:18 51.23401 6.65412 4042 ft 256 kts 230°
2026-04-17 06:18 51.21944 6.63771 4999 ft 263 kts 197°
2026-04-17 06:19 51.20123 6.63612 6058 ft 265 kts 175°
2026-04-17 06:19 51.18281 6.63892 7124 ft 267 kts 174°
2026-04-17 06:19 51.16418 6.64255 8091 ft 273 kts 169°
2026-04-17 06:19 51.14679 6.65550 8982 ft 284 kts 142°
2026-04-17 06:20 51.13455 6.68056 9869 ft 295 kts 114°
2026-04-17 06:20 51.13070 6.71295 10610 ft 309 kts 90°
2026-04-17 06:20 51.13150 6.74843 10972 ft 333 kts 86°
2026-04-17 06:20 51.13306 6.78549 11569 ft 345 kts 85°
2026-04-17 06:21 51.13488 6.82392 12369 ft 351 kts 85°
2026-04-17 06:21 51.13668 6.86296 13189 ft 356 kts 85°
2026-04-17 06:21 51.13833 6.90260 13987 ft 362 kts 87°
2026-04-17 06:21 51.13492 6.94237 14639 ft 368 kts 111°
2026-04-17 06:22 51.12119 6.97654 15333 ft 369 kts 137°
2026-04-17 06:22 51.10086 7.00148 16063 ft 371 kts 147°
2026-04-17 06:22 51.07989 7.02580 16795 ft 375 kts 145°
2026-04-17 06:22 51.05910 7.05131 17506 ft 380 kts 143°
2026-04-17 06:23 51.03838 7.07767 18208 ft 384 kts 142°
2026-04-17 06:23 51.01747 7.10465 18856 ft 389 kts 142°
2026-04-17 06:23 50.99658 7.13151 19417 ft 394 kts 142°
2026-04-17 06:23 50.97510 7.15891 20020 ft 399 kts 143°
2026-04-17 06:24 50.95330 7.18650 20641 ft 402 kts 143°
2026-04-17 06:24 50.93127 7.21418 21099 ft 406 kts 143°
2026-04-17 06:24 50.90905 7.24197 21220 ft 405 kts 143°
2026-04-17 06:24 50.88709 7.26940 21253 ft 401 kts 143°
2026-04-17 06:25 50.86522 7.29670 21248 ft 399 kts 143°
2026-04-17 06:25 50.84342 7.32384 21248 ft 399 kts 143°
2026-04-17 06:25 50.82166 7.35095 21130 ft 395 kts 143°
2026-04-17 06:25 50.80060 7.37721 20855 ft 389 kts 143°
2026-04-17 06:26 50.77943 7.40354 20579 ft 386 kts 143°
2026-04-17 06:26 50.75836 7.42963 20307 ft 384 kts 143°
2026-04-17 06:26 50.73741 7.45558 20041 ft 382 kts 143°
2026-04-17 06:26 50.71655 7.48140 19770 ft 380 kts 143°
2026-04-17 06:27 50.69576 7.50706 19509 ft 379 kts 143°
2026-04-17 06:27 50.67502 7.53256 19246 ft 377 kts 143°
2026-04-17 06:27 50.65433 7.55787 18986 ft 376 kts 143°
2026-04-17 06:27 50.63550 7.58626 18719 ft 375 kts 128°
2026-04-17 06:28 50.62633 7.60924 18461 ft 374 kts 117°
2026-04-17 06:28 50.61098 7.65741 17894 ft 370 kts 116°
2026-04-17 06:28 50.59953 7.69357 17466 ft 367 kts 116°
2026-04-17 06:28 50.58817 7.72946 17055 ft 365 kts 116°
2026-04-17 06:29 50.57688 7.76501 16639 ft 363 kts 116°
2026-04-17 06:29 50.56563 7.80037 16235 ft 360 kts 116°
2026-04-17 06:29 50.55444 7.83544 15824 ft 358 kts 116°
2026-04-17 06:29 50.54706 7.85856 15536 ft 357 kts 117°
2026-04-17 06:30 50.53596 7.89330 15122 ft 354 kts 116°
2026-04-17 06:30 50.52139 7.93896 14580 ft 351 kts 116°
2026-04-17 06:30 50.51043 7.97316 14179 ft 350 kts 116°
2026-04-17 06:30 50.49952 8.00716 13740 ft 347 kts 116°
2026-04-17 06:31 50.48867 8.04092 13294 ft 345 kts 117°
2026-04-17 06:31 50.47788 8.07442 12849 ft 343 kts 117°
2026-04-17 06:31 50.47080 8.09639 12560 ft 341 kts 117°
2026-04-17 06:31 50.46014 8.12944 12119 ft 338 kts 117°
2026-04-17 06:32 50.44955 8.16217 11696 ft 335 kts 117°
2026-04-17 06:32 50.43906 8.19457 11275 ft 332 kts 117°
2026-04-17 06:32 50.42866 8.22669 10933 ft 327 kts 117°
2026-04-17 06:32 50.41523 8.26805 10590 ft 317 kts 117°
2026-04-17 06:33 50.40531 8.29852 10311 ft 310 kts 117°
2026-04-17 06:33 50.39875 8.31870 10140 ft 306 kts 117°
2026-04-17 06:33 50.38915 8.34816 9847 ft 300 kts 117°
2026-04-17 06:33 50.37989 8.37666 9557 ft 295 kts 117°
2026-04-17 06:34 50.37060 8.40518 9262 ft 292 kts 118°
2026-04-17 06:34 50.36137 8.43333 8974 ft 290 kts 118°
2026-04-17 06:34 50.35220 8.46135 8689 ft 288 kts 118°
2026-04-17 06:34 50.34310 8.48918 8406 ft 286 kts 118°
2026-04-17 06:35 50.33405 8.51682 8116 ft 285 kts 118°
2026-04-17 06:35 50.32503 8.54429 7841 ft 283 kts 118°
2026-04-17 06:35 50.31608 8.57157 7562 ft 281 kts 118°
2026-04-17 06:35 50.30717 8.59871 7299 ft 280 kts 118°
2026-04-17 06:36 50.29828 8.62573 7019 ft 278 kts 118°
2026-04-17 06:36 50.28957 8.65217 6753 ft 277 kts 118°
2026-04-17 06:36 50.28085 8.67857 6472 ft 270 kts 118°
2026-04-17 06:36 50.27235 8.70431 6170 ft 263 kts 118°
2026-04-17 06:37 50.26403 8.72944 5906 ft 257 kts 118°
2026-04-17 06:37 50.25588 8.75401 5623 ft 252 kts 118°
2026-04-17 06:37 50.24793 8.77802 5347 ft 246 kts 118°
2026-04-17 06:37 50.24012 8.80160 5071 ft 242 kts 118°
2026-04-17 06:38 50.23258 8.82437 4795 ft 237 kts 118°
2026-04-17 06:38 50.22492 8.84694 4509 ft 233 kts 123°
2026-04-17 06:38 50.21509 8.86672 4228 ft 228 kts 136°
2026-04-17 06:38 50.20303 8.88208 4035 ft 219 kts 148°
2026-04-17 06:39 50.18996 8.89264 4000 ft 207 kts 158°
2026-04-17 06:39 50.17675 8.90152 3998 ft 206 kts 157°
2026-04-17 06:39 50.16358 8.91044 3999 ft 206 kts 157°
2026-04-17 06:39 50.15042 8.91937 3998 ft 206 kts 157°
2026-04-17 06:40 50.13697 8.92703 3988 ft 206 kts 173°
2026-04-17 06:40 50.12351 8.92232 3999 ft 205 kts 215°
2026-04-17 06:40 50.11516 8.90469 4013 ft 207 kts 248°
2026-04-17 06:40 50.11020 8.88351 4001 ft 208 kts 249°
2026-04-17 06:41 50.10543 8.86278 3975 ft 198 kts 249°
2026-04-17 06:41 50.10072 8.84265 3730 ft 198 kts 249°
2026-04-17 06:41 50.09607 8.82265 3525 ft 195 kts 249°
2026-04-17 06:41 50.09129 8.80312 3426 ft 188 kts 248°
2026-04-17 06:42 50.08662 8.78427 3174 ft 186 kts 248°
2026-04-17 06:42 50.08229 8.76522 2895 ft 187 kts 250°
2026-04-17 06:42 50.07810 8.74633 2615 ft 187 kts 250°
2026-04-17 06:42 50.07444 8.72711 2363 ft 184 kts 256°
2026-04-17 06:43 50.07197 8.70805 2094 ft 176 kts 259°
2026-04-17 06:43 50.06924 8.68989 1832 ft 169 kts 253°
2026-04-17 06:43 50.06563 8.67319 1625 ft 154 kts 248°
2026-04-17 06:43 50.06203 8.65833 1386 ft 140 kts 250°
2026-04-17 06:44 50.05863 8.64423 1167 ft 141 kts 250°
2026-04-17 06:44 50.05526 8.62988 982 ft 141 kts 251°
2026-04-17 06:44 50.05195 8.61565 796 ft 140 kts 251°
2026-04-17 06:44 50.04865 8.60164 623 ft 139 kts 250°
2026-04-17 06:45 50.04525 8.58763 425 ft 137 kts 250°
2026-04-17 06:45 50.04211 8.57436 369 ft 117 kts 250°
2026-04-17 06:45 50.04005 8.56566 360 ft 38 kts 250°
2026-04-17 06:45 50.04008 8.56229 351 ft 24 kts 281°
2026-04-17 06:46 50.04105 8.56192 356 ft 20 kts 64°
2026-04-17 06:46 50.04154 8.56396 358 ft 20 kts 69°
2026-04-17 06:46 50.04203 8.56598 360 ft 20 kts 70°
2026-04-17 06:46 50.04250 8.56795 360 ft 19 kts 69°
2026-04-17 06:47 50.04296 8.56985 359 ft 20 kts 69°
2026-04-17 06:47 50.04342 8.57182 364 ft 20 kts 70°
2026-04-17 06:47 50.04391 8.57386 367 ft 21 kts 70°
2026-04-17 06:47 50.04441 8.57596 366 ft 20 kts 69°
2026-04-17 06:48 50.04490 8.57801 365 ft 21 kts 69°
2026-04-17 06:48 50.04542 8.58016 363 ft 22 kts 70°
2026-04-17 06:48 50.04595 8.58241 368 ft 21 kts 69°
2026-04-17 06:48 50.04646 8.58451 370 ft 21 kts 69°
2026-04-17 06:49 50.04698 8.58667 369 ft 22 kts 69°
2026-04-17 06:49 50.04750 8.58863 371 ft 16 kts 70°
2026-04-17 06:49 50.04796 8.58934 367 ft 11 kts 343°
2026-04-17 06:49 50.04843 8.58905 368 ft 4 kts 340°
2026-04-17 06:50 50.04853 8.58900 366 ft 0 kts 340°